Location: Archemont
(49.1579°N, 1.7598°E)
Time: 19:53:46
(UTC+00:00)

Vanguard 2 Rocket - Visible Passes

Search period start: 19 April 2024 00:00
Search period end: 29 April 2024 00:00
Orbit: 555 x 3307 km, 32.9° (Epoch: 19 April)

Date Brightness Start Highest point End Pass type
(mag) Time Alt. Az. Time Alt. Az. Time Alt. Az.
19 Apr 9.6 02:08:03 10° W 02:24:52 37° SSW 02:37:33 10° SE visible
19 Apr 9.9 20:35:44 10° SSW 20:50:17 33° SSE 21:06:35 10° E visible
19 Apr 9.6 22:48:00 10° WSW 23:05:43 46° S 23:22:42 10° ESE visible
20 Apr 9.5 01:03:34 10° WSW 01:21:32 43° SSW 01:36:03 10° SE visible
20 Apr 9.8 03:22:09 10° W 03:35:29 25° SW 03:45:51 10° S visible
20 Apr 10.0 19:34:52 10° S 19:47:12 26° SE 20:01:43 10° E visible
20 Apr 9.7 21:45:20 10° SW 22:01:49 43° SSE 22:19:21 10° ESE visible
20 Apr 9.5 23:59:38 10° WSW 00:17:48 46° S 00:33:55 10° ESE visible
21 Apr 9.7 02:16:45 10° W 02:32:47 32° SSW 02:45:24 10° SSE visible
21 Apr 9.7 20:43:19 10° SW 20:58:09 38° SSE 21:15:25 10° E visible
21 Apr 9.6 22:56:15 10° WSW 23:13:50 47° S 23:31:11 10° ESE visible
22 Apr 9.6 01:12:07 10° W 01:29:33 39° SSW 01:44:07 10° SE visible
22 Apr 10.0 03:31:45 10° W 03:43:06 19° SW 03:52:30 10° S visible
22 Apr 9.9 19:42:01 10° SSW 19:54:54 32° SSE 20:10:47 10° E visible
22 Apr 9.6 21:53:28 10° SW 22:09:52 46° S 22:27:53 10° ESE visible
23 Apr 9.6 00:08:05 10° WSW 00:25:52 44° SSW 00:42:08 10° SE visible
23 Apr 9.8 02:25:44 10° W 02:40:30 27° SW 02:52:44 10° SSE visible
23 Apr 9.7 20:51:16 10° SW 21:06:06 42° SSE 21:23:59 10° E visible
23 Apr 9.6 23:04:39 10° WSW 23:21:57 47° S 23:39:28 10° ESE visible
24 Apr 9.7 01:20:50 10° W 01:37:24 34° SSW 01:51:48 10° SSE visible
24 Apr 10.2 03:42:35 10° WSW 03:50:34 14° SW 03:57:40 10° SSW visible
24 Apr 9.7 19:49:41 10° SSW 20:02:42 36° SSE 20:19:30 10° E visible
24 Apr 9.6 22:01:47 10° WSW 22:17:57 47° S 22:36:12 10° ESE visible
25 Apr 9.7 00:16:41 10° W 00:33:51 40° SSW 00:50:01 10° SE visible
25 Apr 10.0 02:35:12 10° W 02:48:04 22° SW 02:59:18 10° S visible
25 Apr 9.6 20:59:28 10° SW 21:14:07 45° SSE 21:32:21 10° ESE visible
25 Apr 9.6 23:13:12 10° WSW 23:30:00 44° SSW 23:47:31 10° SE visible
26 Apr 9.9 01:29:48 10° W 01:45:06 29° SW 01:58:57 10° SSE visible
26 Apr 9.6 19:57:43 10° SW 20:10:37 40° SSE 20:27:57 10° E visible
26 Apr 9.6 22:10:15 10° WSW 22:26:03 46° S 22:39:36 21° SE visible
27 Apr 9.8 00:25:27 10° W 00:41:42 36° SSW 00:57:31 10° SSE visible
27 Apr 10.2 02:45:40 10° WSW 02:59:29 15° SW 03:04:35 10° SSW visible
27 Apr 9.6 21:07:52 10° WSW 21:22:12 46° S 21:38:32 14° ESE visible
27 Apr 9.7 23:21:51 10° W 23:37:58 41° SSW 23:43:57 35° SSE visible
28 Apr 10.2 01:39:14 10° W 02:04:06 12° S 02:05:22 10° S visible
28 Apr 9.6 20:05:58 10° SW 20:18:39 43° SSE 20:36:12 10° ESE visible
28 Apr 9.7 22:18:51 10° WSW 22:34:07 44° S 22:43:43 29° SE visible
